Wind_Speed
20 19 16 8 13 13 19 25 33 35 33 32 27 26 25 23 21 21 22 18 18 18 10 15 19 20 22 27 32 30 30 31 36 37 37 39 41 35 28 22 19 17 17 15 13
22 20 18 13 10 13 17 27 30 39 37 35 32 29 28 25 24 23 23 19 17 21 9 14 12 15 15 21 24 27 29 32 34 33 33 35 39 38 35 31 30 26 23 17 15
23 22 18 14 13 12 14 27 32 40 40 38 36 32 31 28 27 26 24 20 20 19 12 6 7 8 3 15 21 24 24 25 29 30 31 34 35 40 39 33 30 28 26 23 19
23 24 20 15 15 14 16 29 33 35 44 40 40 35 35 31 31 29 27 22 21 15 16 7 10 7 6 11 17 19 21 22 25 25 28 27 32 36 38 37 31 29 28 27 26
23 25 24 19 16 18 17 31 35 35 45 44 43 41 38 35 35 31 30 24 21 26 16 7 10 3 8 8 10 15 17 21 25 25 25 24 33 34 34 35 35 31 29 28 27
27 25 25 21 19 17 17 30 38 37 42 48 44 45 41 38 38 34 31 28 22 23 9 14 10 9 5 2 7 14 18 21 23 25 24 17 29 37 35 33 32 32 31 30 30
31 27 26 22 21 18 17 26 39 39 42 51 47 48 45 43 40 36 31 28 22 20 12 12 13 14 7 3 4 11 17 20 21 26 26 20 21 27 32 34 31 32 33 32 29
28 28 27 23 23 21 20 22 37 40 43 50 51 50 48 46 43 36 32 31 24 17 14 20 13 10 6 7 4 12 15 16 18 22 25 25 21 28 29 33 33 33 33 34 32
31 31 30 25 25 24 22 23 34 37 42 50 56 54 51 48 45 39 35 31 26 22 16 19 19 13 9 13 7 7 10 16 13 19 21 22 22 24 28 32 35 35 34 34 35
35 31 32 27 27 28 30 28 33 37 42 52 60 58 55 51 47 45 37 32 26 25 21 23 13 14 11 10 9 2 7 11 14 18 20 20 20 23 27 31 36 35 35 34 34
39 36 33 30 29 32 34 32 34 37 44 55 64 62 58 53 49 46 40 32 27 26 23 20 17 11 16 16 12 5 5 5 11 18 19 21 19 23 27 31 35 36 37 35 37
44 39 36 32 32 33 36 36 36 37 44 57 67 64 61 55 51 47 43 34 30 28 24 22 17 13 15 15 6 10 4 8 14 14 17 23 21 23 27 33 34 39 38 37 37
45 41 38 33 34 34 38 36 33 35 46 59 68 67 63 58 53 48 45 39 34 32 26 21 17 18 20 14 12 12 14 13 13 14 16 17 20 24 29 33 35 40 38 38 38
43 43 38 35 34 39 38 35 31 36 48 63 73 71 66 60 55 51 46 41 37 34 31 27 21 17 13 17 12 9 12 12 10 18 19 16 20 24 32 34 36 41 40 39 38
43 43 39 37 37 40 37 33 33 37 50 65 74 72 66 62 57 52 46 42 38 35 31 26 24 20 18 15 11 7 19 13 17 23 27 22 21 27 36 38 39 42 42 43 41
45 44 40 38 39 39 36 31 32 39 51 67 76 72 66 62 58 52 46 41 39 35 30 25 21 21 21 16 12 9 16 18 21 29 24 24 27 33 36 39 42 46 46 48 46
47 45 41 38 41 38 32 30 32 40 53 69 74 69 63 59 57 50 45 41 39 35 30 28 20 21 22 17 14 21 23 20 23 23 26 29 32 34 36 40 44 43 48 47 45
48 45 41 38 41 36 29 29 34 46 56 67 69 65 60 57 53 48 44 42 40 38 33 27 23 22 21 21 21 30 27 22 26 26 24 28 31 33 36 42 42 45 47 47 47
49 45 40 40 39 34 28 30 41 54 60 65 67 62 58 54 50 46 42 38 36 40 36 29 25 23 22 23 28 25 22 27 30 28 25 30 34 36 36 41 43 47 50 50 53
48 45 41 40 37 31 30 36 48 57 63 62 60 57 55 52 50 43 40 36 37 35 34 29 26 28 30 32 31 28 28 30 31 29 27 35 37 35 42 47 45 47 50 53 59
48 43 42 38 37 31 33 43 55 60 60 59 57 58 56 53 48 44 41 40 32 32 36 37 36 36 36 35 32 34 31 30 33 34 34 35 36 39 45 48 48 48 53 58 61
45 43 41 37 36 34 36 50 61 61 58 57 59 57 55 53 48 43 42 46 42 39 38 40 41 37 37 38 37 35 37 37 38 36 38 39 40 44 50 53 52 53 57 64 64
45 44 41 39 38 35 40 56 64 64 61 56 58 57 55 51 46 45 43 43 45 41 43 43 42 39 40 36 37 41 43 45 43 44 46 45 45 49 52 54 55 57 61 70 72
46 43 42 43 39 35 42 59 64 63 60 44 53 58 56 53 49 47 46 44 41 39 41 43 42 38 37 35 38 43 41 41 43 47 48 49 53 55 54 57 59 60 64 73 74
47 46 44 43 37 38 47 61 64 63 62 59 53 59 55 53 52 49 47 41 40 38 35 34 32 31 34 35 38 42 44 46 48 49 51 56 61 63 63 64 64 66 74 78 79
50 48 45 43 36 39 48 62 64 61 59 53 55 55 58 54 54 50 48 45 41 39 37 30 29 35 35 36 38 43 46 47 51 55 60 63 64 63 60 67 65 75 78 80 81
51 47 44 41 39 43 51 63 65 62 60 56 56 57 55 57 56 53 50 52 49 42 47 43 41 40 42 44 43 42 46 51 51 54 57 59 60 64 69 71 77 81 81 82 83
Wind_Direction
286 294 302 308 305 334 224 216 206 208 200 198 197 187 176 175 174 175 179 165 153 136 121 95 95 75 70 61 53 50 55 58 53 48 42 49 50 56 58 55 50 56 55 62 60
285 283 289 290 287 313 240 215 209 207 204 197 195 183 178 181 178 177 188 168 161 136 139 81 83 32 68 65 52 57 57 57 54 48 49 45 48 49 58 50 46 47 51 49 40
274 275 278 288 271 301 270 216 211 206 206 199 194 189 178 183 183 184 192 172 168 160 138 103 53 43 323 70 60 61 58 59 50 48 42 49 48 48 50 55 50 44 38 36 32
275 272 268 269 266 280 259 221 209 209 206 202 194 191 179 184 186 189 193 183 184 156 136 108 112 129 33 77 65 64 65 61 63 52 46 43 47 47 48 48 48 45 41 34 30
267 269 265 262 263 276 253 219 210 210 206 202 196 192 180 185 189 193 194 187 185 148 141 170 183 197 71 72 47 60 70 60 59 52 45 44 41 42 41 42 43 40 37 36 28
274 264 261 254 256 269 259 219 213 210 207 204 197 193 181 187 192 195 197 191 187 189 170 180 169 148 118 248 57 69 57 46 44 45 40 40 33 41 35 36 36 37 35 31 28
270 259 257 250 256 258 259 226 213 211 211 204 197 194 181 187 193 194 199 193 197 194 172 174 135 150 143 91 338 67 53 50 50 38 38 37 23 35 30 31 26 29 28 24 22
261 254 251 255 253 254 249 234 218 212 211 204 197 195 186 189 193 194 197 197 199 199 210 159 164 131 139 168 296 72 51 46 55 43 35 35 30 26 24 28 26 20 18 17 13
261 252 250 253 251 250 249 235 221 214 209 204 197 195 194 191 192 195 194 196 199 206 204 163 160 167 182 192 195 80 50 42 54 35 37 26 20 22 14 18 18 15 12 13 9
262 250 249 250 248 250 243 233 217 214 206 202 197 195 197 195 195 196 193 194 190 195 187 175 186 166 199 211 195 122 50 27 41 39 28 15 11 10 10 11 11 8 7 11 6
261 250 249 250 243 247 238 227 214 213 203 200 196 194 198 199 198 197 196 193 194 195 197 188 182 191 210 194 220 251 314 18 30 28 25 358 2 0 2 1 3 4 6 6 5
258 250 248 244 241 245 234 224 217 214 205 200 195 194 198 202 202 198 195 197 196 196 202 197 191 201 207 195 209 245 312 336 343 6 15 357 358 352 351 354 356 359 3 360 359
249 246 244 240 241 237 232 228 222 218 209 200 195 194 198 202 205 201 199 198 199 193 197 199 207 213 216 227 237 258 268 305 340 356 9 350 352 344 343 344 351 358 358 353 354
240 240 238 236 236 233 232 231 231 221 210 198 193 194 198 202 205 202 203 200 202 199 201 207 212 217 206 211 226 284 263 278 311 342 349 346 340 338 340 340 343 350 350 349 348
233 234 232 233 230 232 233 236 234 222 205 195 192 194 197 203 204 202 205 203 202 203 203 208 219 220 221 236 237 261 273 286 326 318 324 330 327 325 331 333 334 339 342 344 341
227 228 225 230 228 230 233 238 230 216 197 192 192 194 196 203 204 202 205 208 206 205 205 213 213 224 227 235 234 257 251 298 316 316 320 324 323 321 326 328 331 335 341 341 342
223 223 221 227 226 229 235 235 218 202 190 190 191 194 197 203 204 204 207 209 210 204 210 216 220 237 233 219 227 242 268 293 308 311 318 318 319 321 320 325 327 334 338 338 336
219 217 219 222 223 227 232 224 204 188 186 188 192 194 197 202 204 206 208 213 211 211 216 221 238 234 236 228 240 251 263 284 297 302 303 308 312 316 316 318 326 331 335 334 334
212 213 216 216 222 226 226 209 191 185 181 188 192 193 196 201 204 207 209 213 212 215 219 221 225 227 231 234 237 245 269 283 289 298 300 300 305 311 314 321 325 329 332 331 330
207 210 211 213 220 222 218 197 185 185 184 188 190 194 196 202 205 207 205 208 206 212 217 219 211 217 229 232 245 267 278 279 283 285 291 293 298 305 309 317 320 325 326 326 325
204 206 206 212 217 217 208 188 183 186 185 190 191 195 200 200 203 203 199 200 198 209 212 212 214 225 232 236 264 275 278 284 287 284 283 283 291 300 309 313 313 320 320 323 323
199 202 204 211 215 213 201 187 184 187 186 192 193 196 201 203 202 203 204 201 203 210 218 221 224 233 238 249 264 273 279 283 280 283 278 280 288 298 302 304 304 307 312 321 322
198 199 204 210 213 210 196 187 187 190 190 191 196 199 201 202 205 206 205 205 211 219 222 228 236 248 255 263 270 270 273 280 284 283 284 283 287 290 295 302 304 303 308 316 321
197 198 205 210 210 205 197 189 189 192 193 186 205 200 203 205 207 210 213 212 212 227 237 239 242 250 258 263 269 275 279 280 278 281 283 285 292 293 298 303 303 303 304 313 319
195 202 206 208 206 199 195 190 191 194 197 195 205 205 207 209 210 211 208 214 219 229 234 240 249 255 253 261 265 270 273 272 274 278 282 287 289 292 296 301 304 304 308 315 317
199 203 205 206 201 202 196 190 191 195 198 201 208 214 209 211 218 215 215 211 220 224 223 214 233 247 253 253 259 266 269 270 275 282 284 286 289 293 296 300 297 304 310 314 316
201 203 204 204 200 199 197 192 193 194 195 200 210 212 216 216 218 218 216 220 218 215 217 219 232 242 252 259 263 265 266 270 276 282 287 290 294 298 299 298 303 309 312 314 316
Height
10975 10975 10975 10975 10974 10972 10973 10976 10980 10985 10989 10994 11000 11006 11010 11014 11019 11021 11023 11025 11027 11027 11028 11028 11026 11025 11023 11022 11020 11018 11016 11013 11011 11011 11014 11009 11005 11004 11002 10998 10997 10997 10996 10995 10995
10971 10971 10971 10972 10972 10970 10969 10971 10976 10981 10986 10991 10997 11004 11009 11013 11017 11020 11021 11026 11027 11028 11030 11030 11029 11029 11026 11024 11023 11022 11020 11018 11017 11016 11016 11016 11010 11007 11004 11002 11000 10999 10998 10998 10997
10965 10967 10967 10967 10967 10966 10965 10967 10971 10976 10982 10988 10995 11001 11007 11012 11016 11018 11020 11026 11028 11029 11032 11032 11032 11033 11029 11027 11027 11026 11024 11022 11021 11020 11021 11018 11015 11010 11007 11007 11006 11003 11000 10999 10999
10959 10961 10962 10963 10962 10962 10961 10963 10966 10971 10978 10985 10991 10998 11005 11010 11014 11016 11018 11023 11026 11030 11031 11031 11032 11033 11035 11032 11031 11030 11026 11026 11025 11024 11022 11022 11018 11014 11011 11011 11009 11006 11004 11001 10998
10952 10954 10956 10958 10957 10956 10956 10958 10961 10967 10973 10980 10988 10995 11002 11008 11012 11013 11017 11022 11026 11030 11031 11032 11033 11035 11036 11036 11033 11032 11030 11029 11026 11026 11024 11024 11022 11016 11013 11011 11009 11009 11008 11004 11000
10945 10947 10949 10952 10952 10952 10951 10953 10956 10962 10967 10975 10984 10991 10999 11004 11008 11010 11015 11021 11025 11029 11031 11033 11034 11035 11037 11036 11035 11033 11032 11030 11029 11027 11026 11028 11025 11019 11017 11014 11014 11012 11008 11005 11002
10937 10939 10942 10945 10946 10946 10946 10948 10952 10956 10962 10970 10981 10987 10995 11001 11006 11009 11014 11021 11025 11028 11030 11033 11034 11034 11037 11037 11035 11034 11033 11033 11031 11030 11029 11029 11028 11024 11023 11019 11015 11011 11008 11005 11002
10928 10931 10935 10938 10939 10940 10941 10942 10946 10950 10957 10966 10976 10982 10990 10996 11003 11007 11013 11018 11023 11028 11029 11032 11035 11036 11037 11037 11037 11036 11036 11035 11032 11033 11032 11031 11029 11026 11024 11022 11019 11013 11010 11006 11003
10920 10924 10927 10930 10932 10933 10935 10935 10939 10944 10951 10961 10970 10977 10984 10992 11000 11006 11010 11015 11021 11025 11027 11031 11035 11036 11036 11035 11037 11037 11036 11035 11035 11034 11033 11033 11030 11027 11024 11022 11019 11016 11013 11007 11003
10911 10916 10919 10922 10924 10926 10927 10928 10931 10937 10943 10952 10963 10972 10979 10986 10995 11001 11007 11013 11018 11022 11026 11029 11033 11035 11035 11034 11037 11037 11037 11037 11036 11035 11033 11033 11031 11027 11023 11021 11019 11017 11013 11009 11005
10902 10907 10911 10914 10916 10917 10919 10921 10923 10929 10935 10944 10954 10966 10973 10981 10990 10999 11005 11010 11015 11020 11024 11028 11030 11031 11032 11033 11037 11038 11038 11038 11036 11035 11034 11033 11030 11027 11024 11021 11018 11016 11013 11007 11003
10892 10897 10902 10905 10907 10908 10910 10913 10915 10921 10928 10935 10947 10959 10968 10977 10986 10995 11001 11007 11013 11017 11022 11025 11028 11030 11032 11032 11036 11037 11038 11037 11037 11035 11033 11031 11029 11027 11024 11021 11018 11015 11011 11006 11003
10881 10887 10892 10896 10898 10899 10900 10903 10908 10914 10920 10928 10941 10952 10962 10970 10979 10990 10997 11003 11010 11014 11018 11023 11026 11029 11031 11033 11036 11037 11037 11036 11036 11034 11032 11031 11029 11026 11023 11020 11016 11014 11012 11007 11002
10871 10877 10883 10887 10888 10887 10890 10894 10899 10904 10910 10919 10932 10945 10956 10964 10973 10983 10992 10999 11006 11011 11016 11021 11024 11026 11027 11030 11033 11034 11034 11033 11031 11030 11029 11029 11027 11024 11021 11018 11015 11014 11012 11007 11002
10861 10867 10874 10877 10877 10879 10882 10886 10890 10894 10900 10914 10928 10940 10951 10960 10969 10980 10988 10995 11001 11006 11012 11017 11020 11023 11024 11026 11030 11031 11031 11028 11027 11026 11025 11025 11024 11022 11018 11015 11012 11011 11008 11004 10999
10851 10858 10866 10868 10867 10871 10875 10880 10883 10885 10894 10907 10922 10935 10947 10955 10964 10976 10985 10992 10998 11004 11010 11014 11018 11018 11021 11025 11026 11028 11026 11023 11023 11022 11023 11021 11020 11018 11013 11010 11006 11002 10999 10995 10989
10841 10849 10857 10859 10859 10865 10870 10873 10876 10882 10892 10906 10921 10934 10946 10956 10964 10975 10982 10989 10994 11002 11006 11008 11013 11015 11018 11022 11022 11023 11023 11022 11021 11020 11020 11018 11015 11012 11008 11004 11002 10998 10993 10989 10984
10832 10841 10848 10851 10854 10859 10865 10868 10872 10879 10893 10907 10920 10933 10943 10951 10963 10971 10978 10986 10992 10998 11002 11006 11009 11012 11015 11018 11021 11022 11021 11022 11019 11020 11018 11016 11013 11008 11005 11001 10997 10994 10992 10987 10982
10824 10834 10840 10844 10848 10855 10860 10864 10871 10879 10889 10902 10918 10930 10940 10949 10961 10969 10976 10982 10988 10994 11000 11003 11007 11009 11012 11014 11016 11016 11017 11017 11015 11014 11013 11011 11010 11005 11001 10998 10994 10988 10984 10979 10976
10817 10826 10833 10839 10845 10851 10857 10862 10870 10880 10890 10904 10918 10931 10940 10949 10957 10966 10972 10978 10985 10990 10996 11000 11003 11005 11006 11009 11010 11010 11011 11011 11010 11009 11007 11005 11003 11001 10996 10994 10991 10986 10980 10976 10972
10811 10820 10827 10834 10841 10847 10853 10860 10869 10880 10892 10903 10916 10925 10935 10942 10951 10959 10968 10974 10980 10985 10990 10994 10997 10998 11000 11003 11004 11006 11006 11005 11005 11004 11000 10999 10996 10995 10993 10989 10986 10982 10977 10971 10966
10806 10815 10823 10830 10837 10842 10849 10858 10866 10879 10890 10901 10911 10922 10931 10939 10948 10954 10961 10969 10974 10978 10984 10988 10991 10993 10995 10999 11001 11000 10998 10998 10998 10996 10993 10992 10991 10989 10987 10985 10980 10974 10969 10965 10958
10800 10810 10818 10825 10830 10837 10846 10855 10865 10875 10886 10897 10911 10920 10928 10938 10945 10952 10956 10963 10971 10975 10978 10983 10986 10988 10990 10993 10994 10992 10991 10990 10990 10987 10984 10985 10984 10982 10980 10975 10970 10964 10959 10954 10947
10796 10808 10814 10819 10825 10835 10844 10855 10863 10876 10887 10903 10909 10915 10923 10931 10939 10946 10953 10959 10966 10970 10974 10977 10979 10981 10986 10986 10985 10983 10982 10981 10980 10977 10976 10975 10973 10971 10969 10965 10958 10953 10948 10943 10935
10793 10799 10806 10814 10823 10832 10839 10851 10864 10874 10885 10895 10903 10912 10922 10927 10930 10937 10946 10954 10961 10965 10970 10971 10973 10976 10977 10978 10978 10976 10975 10973 10971 10968 10966 10965 10964 10960 10958 10954 10947 10941 10935 10929 10922
10785 10793 10802 10811 10822 10831 10837 10847 10861 10872 10880 10891 10899 10909 10914 10920 10927 10935 10944 10950 10955 10958 10963 10967 10968 10968 10969 10971 10970 10969 10966 10964 10962 10960 10958 10956 10953 10950 10947 10942 10936 10932 10924 10916 10907
10779 10790 10801 10810 10819 10825 10833 10844 10854 10868 10878 10886 10892 10902 10908 10914 10921 10930 10936 10941 10946 10951 10954 10956 10958 10960 10961 10963 10963 10960 10956 10954 10953 10949 10946 10944 10942 10937 10932 10925 10919 10913 10907 10901 10892